Vertical_Velocity
19 -21 -7 6 3 -1 2 14 -6 2 -6 -10 3 -9 -1 3 6 2 -3 4 -2 0 -1 -1 3 1 0 -0 0 -0 -2 -3 -1 -1 -2 -1 0 -1 -1 -2 -1 -0 -0
-3 10 4 -0 -1 3 4 52 -0 -5 -5 -15 5 -2 7 9 0 -0 -5 -2 3 -1 -1 3 -0 1 0 1 0 -1 0 -0 -1 -2 -1 -1 -1 -0 1 -1 -1 -1 -0
-6 6 2 -2 2 -11 -14 23 4 15 16 13 3 -8 -12 -18 -9 -1 0 9 10 1 -1 1 1 1 1 0 -1 0 -2 -2 -4 1 -1 -1 -2 -1 -0 -0 0 -0 -0
12 9 -6 -4 -10 -9 7 9 18 -12 3 22 -13 -15 -2 2 12 10 5 -2 -4 0 -1 -0 -1 3 0 1 2 -3 0 -0 1 -2 -0 2 1 -1 -1 -1 -1 -1 -1
8 16 7 6 5 2 -5 27 -7 4 -4 30 -7 -14 27 3 -7 -5 -2 -2 -2 1 -1 2 1 1 2 2 -1 0 0 -0 0 -0 1 2 1 0 -1 0 0 -0 -2
-3 -1 5 10 1 -3 -4 11 27 39 52 1 6 1 1 -5 -7 -4 -0 2 3 1 -0 -1 -0 -0 1 1 -1 -2 -2 0 1 1 1 3 1 -1 -0 0 -1 -1 -0
4 7 -2 -11 -11 2 -2 11 8 0 -19 -2 -5 2 0 8 -5 0 0 3 5 4 2 1 2 1 -0 1 -2 -0 1 -0 2 2 1 1 -1 -1 0 0 2 0 -1
-1 5 8 0 2 9 4 6 7 -14 3 22 4 2 15 6 -4 -4 -2 2 1 -0 -1 1 -2 -0 1 0 -1 -1 1 2 2 3 2 0 -0 0 1 1 1 -0 0
-12 1 2 2 12 8 1 5 17 42 5 3 17 -0 8 5 2 3 -2 -2 0 5 2 -0 1 -0 0 1 1 -1 1 -0 -2 -0 -1 -0 -2 -1 -1 0 -0 -1 -0
-3 -10 -7 -1 -8 10 2 13 -4 99 -13 38 40 2 -3 101 -7 46 -1 -4 -7 7 21 -5 2 -1 -1 1 -4 2 3 4 3 -0 -2 -2 -2 -1 -2 -2 -0 -0 1
-1 -6 -2 2 -2 -4 3 -0 2 -2 1 -4 37 5 9 7 -3 7 31 1 30 10 -4 -1 -4 -3 -2 -0 -1 4 4 11 3 -2 1 2 -1 -2 -1 -1 0 -1 0
7 7 4 4 -1 -5 6 1 -6 -4 -4 -1 2 2 -5 7 27 20 38 14 -0 8 0 -1 1 -1 0 2 -1 1 2 5 -1 -3 -2 -2 -2 -1 0 1 1 -0 -0
-6 11 -6 2 -2 1 3 7 -2 -2 -1 4 20 34 3 4 11 30 17 9 6 4 3 1 -1 -1 0 1 2 -0 -0 1 -0 1 1 1 2 1 -0 0 -1 -1 -1
2 -10 5 6 1 -2 5 2 7 7 24 6 9 12 10 4 11 6 11 7 2 0 -4 0 -2 -0 0 1 3 1 2 -1 2 0 2 -0 2 -0 -0 -0 -0 -0 -0
1 3 -5 -22 -4 3 -4 18 12 0 25 10 10 2 9 1 6 5 -0 -6 -4 -0 6 11 -3 0 -0 6 2 -0 -2 -1 -1 -1 1 -1 1 -1 0 0 -1 -1 0
2 4 -2 4 13 1 -2 4 2 -2 4 14 7 4 4 -2 -1 2 -0 0 -1 1 4 4 2 2 -3 2 1 2 -1 -5 -5 -1 0 -1 -1 -1 1 -3 -1 -0 -3
2 2 -3 -2 -1 5 13 1 -5 1 -9 -2 5 2 -3 1 -3 3 1 2 3 2 2 4 2 3 2 -1 2 -0 -3 -2 -1 4 -2 -1 1 -2 0 -2 -3 -0 0
4 2 1 -1 0 2 3 5 9 9 -3 -3 -2 0 3 -0 3 3 4 1 4 3 6 1 1 1 4 1 -1 0 2 -2 -0 0 -2 2 -1 -1 -2 0 -0 0 -1
7 7 -1 -4 -2 -2 -2 -2 -1 1 3 2 3 2 3 3 3 5 5 3 4 6 5 7 2 2 3 2 -2 0 0 1 1 0 1 -1 2 2 1 -2 2 -1 1
0 3 1 -1 -4 -0 3 -1 3 0 -1 5 3 3 1 2 -0 0 -0 3 1 -1 1 -0 1 -1 -11 3 -6 0 -2 -1 2 0 1 -2 4 -2 -0 1 1 -0 1
-4 1 6 3 -1 1 0 0 -0 -2 -1 -4 -3 1 2 -1 -1 -3 -2 1 1 -2 -4 -1 -3 2 -0 1 -6 -0 -4 3 -6 2 -3 2 -1 -1 2 -0 2 1 2
-4 12 17 3 4 3 -0 2 3 5 7 3 3 1 -3 -1 0 0 1 -0 2 -1 1 -1 -0 -0 3 -1 -2 -3 -1 3 2 0 4 -0 1 2 0 1 0 1 2
20 0 -1 -0 -1 3 5 5 2 2 0 -6 1 -1 -2 -1 1 1 -1 -4 -0 -1 0 -2 -0 1 -0 -1 -3 -3 0 2 -2 2 2 0 1 -2 1 3 -1 0 -0
-0 -2 16 -1 -5 -4 -2 -0 1 2 1 0 -2 -1 1 -3 -3 -3 -2 -1 -0 -1 -5 -2 -2 -2 -2 1 4 1 -1 6 1 0 -1 -1 -2 1 2 4 3 3 3
-1 -1 -3 -2 1 2 -2 -5 -3 -4 -4 -0 -2 -2 -0 -1 -1 -1 -3 -1 -2 -4 -4 -2 -2 -1 0 -4 -7 2 0 -0 -1 4 4 -1 12 12 3 -2 3 2 2
0 2 1 2 -0 -1 1 1 -1 -2 -2 -3 -1 -2 -0 0 -2 1 1 -3 -2 -0 0 -1 -4 -3 -7 3 -3 0 -4 -4 8 2 2 -1 4 3 0 2 8 8 -1
Height
5577 5587 5607 5625 5643 5654 5665 5677 5685 5696 5706 5715 5724 5732 5740 5748 5758 5765 5772 5780 5787 5792 5798 5803 5809 5814 5819 5824 5828 5832 5835 5838 5840 5841 5844 5846 5847 5848 5849 5849 5849 5849 5850
5550 5574 5591 5604 5626 5643 5655 5674 5676 5686 5696 5707 5717 5727 5736 5743 5751 5760 5767 5774 5781 5787 5792 5798 5803 5809 5814 5820 5825 5828 5831 5833 5835 5837 5839 5841 5843 5844 5845 5845 5846 5846 5846
5528 5555 5574 5593 5609 5629 5646 5661 5663 5674 5686 5697 5707 5715 5724 5730 5738 5748 5757 5766 5774 5780 5786 5792 5797 5803 5809 5814 5818 5822 5825 5828 5830 5833 5835 5837 5838 5840 5840 5841 5841 5842 5842
5511 5535 5555 5576 5600 5622 5636 5644 5644 5661 5677 5688 5698 5707 5719 5725 5734 5745 5754 5760 5767 5774 5780 5786 5792 5798 5803 5808 5812 5816 5819 5822 5826 5828 5830 5832 5834 5835 5836 5836 5837 5837 5837
5488 5518 5540 5565 5588 5607 5627 5639 5646 5642 5666 5675 5685 5697 5698 5719 5727 5736 5744 5751 5759 5767 5773 5779 5785 5792 5797 5802 5806 5810 5814 5818 5821 5824 5826 5828 5829 5830 5830 5831 5831 5831 5831
5471 5497 5521 5543 5568 5594 5614 5623 5624 5630 5653 5665 5679 5690 5702 5711 5717 5725 5736 5743 5752 5760 5766 5773 5779 5785 5790 5796 5800 5804 5808 5812 5815 5818 5821 5823 5824 5824 5824 5825 5825 5826 5826
5458 5487 5506 5528 5555 5583 5601 5610 5622 5634 5648 5658 5671 5681 5694 5703 5711 5720 5729 5737 5745 5753 5760 5767 5774 5779 5784 5789 5793 5798 5802 5805 5808 5811 5815 5817 5817 5818 5818 5819 5819 5819 5820
5449 5475 5500 5523 5550 5571 5590 5606 5619 5625 5638 5636 5662 5672 5688 5696 5704 5711 5720 5729 5739 5747 5753 5759 5766 5771 5776 5781 5786 5791 5795 5800 5803 5807 5809 5811 5811 5811 5812 5813 5813 5813 5813
5436 5465 5487 5510 5535 5557 5576 5597 5608 5615 5634 5644 5656 5666 5679 5688 5697 5705 5711 5720 5728 5737 5744 5751 5757 5764 5769 5775 5780 5785 5789 5793 5796 5800 5802 5803 5803 5805 5806 5806 5806 5806 5806
5444 5465 5486 5507 5524 5544 5564 5582 5600 5600 5626 5636 5644 5660 5671 5669 5688 5689 5703 5711 5716 5728 5738 5744 5751 5757 5763 5769 5775 5778 5782 5786 5790 5793 5795 5797 5797 5798 5799 5799 5800 5799 5798
5445 5469 5488 5504 5522 5542 5561 5576 5593 5605 5618 5630 5635 5650 5662 5672 5681 5687 5687 5703 5708 5717 5730 5738 5744 5750 5756 5762 5768 5770 5774 5779 5782 5785 5787 5788 5790 5791 5791 5791 5791 5790 5790
5443 5466 5485 5502 5518 5538 5557 5574 5586 5600 5613 5623 5637 5646 5656 5665 5674 5679 5682 5694 5704 5713 5722 5729 5737 5744 5749 5754 5760 5763 5767 5771 5775 5776 5778 5780 5781 5782 5783 5783 5783 5782 5781
5438 5463 5481 5497 5515 5533 5552 5568 5581 5593 5607 5616 5630 5634 5644 5656 5664 5673 5679 5686 5697 5706 5715 5723 5731 5737 5743 5748 5752 5756 5760 5763 5766 5769 5771 5772 5774 5775 5776 5776 5775 5774 5772
5447 5460 5477 5497 5513 5531 5548 5565 5577 5589 5596 5607 5619 5625 5636 5648 5657 5665 5672 5681 5690 5700 5709 5717 5724 5731 5736 5741 5745 5749 5753 5757 5760 5762 5764 5766 5767 5768 5768 5768 5767 5765 5764
5452 5469 5485 5497 5511 5528 5543 5554 5560 5575 5586 5598 5612 5623 5631 5638 5648 5657 5666 5676 5686 5696 5704 5710 5717 5725 5729 5734 5739 5743 5747 5750 5754 5756 5758 5759 5760 5760 5760 5759 5758 5757 5755
5458 5473 5489 5503 5518 5530 5540 5554 5563 5576 5587 5598 5606 5616 5624 5632 5642 5653 5663 5674 5683 5692 5698 5704 5711 5718 5723 5727 5733 5737 5741 5745 5746 5748 5750 5751 5751 5752 5751 5751 5750 5748 5745
5465 5477 5492 5504 5515 5528 5542 5553 5564 5575 5584 5594 5603 5611 5620 5630 5640 5651 5660 5669 5678 5686 5692 5698 5704 5709 5716 5722 5727 5729 5734 5737 5738 5739 5741 5742 5742 5742 5742 5742 5740 5738 5734
5470 5481 5494 5507 5517 5528 5539 5551 5563 5572 5583 5592 5601 5609 5619 5628 5636 5646 5654 5662 5671 5678 5685 5692 5698 5703 5710 5714 5719 5722 5725 5728 5730 5731 5731 5733 5733 5732 5732 5730 5729 5726 5724
5476 5485 5495 5506 5517 5527 5538 5550 5561 5571 5580 5589 5598 5607 5615 5622 5631 5640 5648 5655 5663 5671 5678 5685 5692 5698 5702 5705 5709 5713 5716 5718 5720 5721 5722 5723 5723 5722 5721 5720 5718 5716 5714
5483 5490 5497 5505 5515 5526 5536 5546 5555 5565 5576 5585 5593 5601 5609 5618 5626 5635 5643 5650 5658 5664 5671 5678 5684 5689 5692 5697 5700 5704 5706 5709 5710 5712 5712 5713 5714 5712 5711 5710 5708 5706 5705
5487 5493 5498 5505 5514 5523 5532 5542 5552 5561 5570 5579 5587 5595 5604 5612 5620 5629 5637 5645 5652 5658 5665 5671 5676 5681 5684 5687 5691 5694 5696 5699 5699 5701 5702 5703 5702 5702 5701 5700 5699 5697 5695
5492 5495 5497 5505 5512 5519 5529 5538 5546 5555 5563 5572 5581 5591 5599 5607 5615 5623 5630 5637 5644 5650 5655 5661 5667 5671 5674 5678 5681 5684 5687 5689 5691 5691 5692 5692 5692 5692 5691 5690 5689 5687 5685
5495 5500 5504 5508 5514 5520 5525 5531 5540 5548 5556 5565 5575 5584 5592 5600 5607 5615 5622 5629 5635 5641 5647 5652 5657 5661 5664 5668 5671 5675 5677 5679 5680 5681 5682 5681 5681 5682 5682 5681 5679 5677 5675
5500 5503 5507 5511 5516 5521 5526 5532 5537 5544 5551 5559 5568 5577 5585 5593 5601 5608 5615 5622 5628 5634 5639 5645 5649 5653 5656 5659 5663 5665 5667 5668 5669 5670 5671 5672 5672 5673 5672 5671 5670 5667 5664
5503 5506 5509 5512 5516 5520 5525 5530 5536 5541 5548 5556 5563 5571 5578 5586 5594 5601 5607 5613 5619 5624 5630 5634 5638 5643 5646 5649 5652 5655 5656 5658 5659 5660 5661 5663 5663 5663 5662 5661 5659 5656 5654
5504 5507 5510 5512 5515 5519 5523 5528 5533 5539 5546 5552 5559 5565 5572 5579 5586 5592 5598 5604 5610 5616 5620 5626 5630 5634 5636 5639 5643 5647 5649 5650 5651 5651 5653 5654 5653 5654 5653 5651 5650 5647 5643